[[{"header":{"parameterUnit":"m.s-1","parameterCategory":1,"la1":30.2991,"la2":30.254,"lo1":-89.0895,"lo2":-89.0444,"dy":0.0017,"dx":0.0017,"nx":28,"ny":28,"refTime":"2025-04-25T21:00:00:Z","depth":0,"parameterNumber":2,"parameterNumberName":"U-component_of_WINDS"},"data":[0,0,0,0,0,0,0,0,0,0,0,0,0,0,0,0,0,0,0,0,0,0,0,0,0,0,0,0,0,0,0,0,0,0,0,0,0,0,0,0,0,0,0,0,0,0,0,0,0,0,0,0,0,0,0,0,0,0,0.6037,0.6038,0,0.6164,0.6165,0.6167,0.6218,0.6217,0.6217,0.6217,0.635,0.6354,0.6357,0,0,0,0,0,0,0,0,0,0,0,0,0,0.584,0.5843,0.6037,0.6038,0.604,0.6164,0.6165,0.6167,0.6218,0.6217,0.6217,0.6217,0.6349,0.6353,0.6358,0,0,0,0,0,0,0,0,0,0,0,0,0,0.5942,0.5844,0.6036,0.608,0.6085,0.6163,0.6166,0.6168,0.6218,0.6217,0.6217,0.6216,0.6347,0.6353,0.6358,0.6404,0,0,0.6376,0.6378,0,0,0,0,0,0,0,0,0.5936,0.5949,0.6072,0.6077,0.6083,0.6174,0.6145,0.6247,0.6218,0.6168,0.6217,0.6216,0.6292,0.6302,0.6327,0.641,0.6415,0.6376,0.638,0.6382,0.6384,0,0,0,0,0,0,0,0.5929,0.5944,0.6087,0.6074,0.6081,0.6094,0.6108,0.6164,0.6231,0.6172,0.6176,0.619,0.6295,0.6322,0.6331,0.6417,0.6376,0.6381,0.6385,0.6387,0.6543,0.6544,0,0,0,0,0,0,0.5914,0.5938,0.6083,0.6091,0.6007,0.6098,0.6113,0.6146,0.6231,0.6243,0.619,0.6192,0.6312,0.6324,0.6336,0.6394,0.6382,0.6388,0.6391,0.6542,0.6543,0.6544,0,0,0,0,0,0,0.591,0.5927,0.6078,0.6015,0.6036,0.6102,0.6137,0.6148,0.6175,0.6244,0.6257,0.6205,0.6312,0.6328,0.6386,0.6399,0.639,0.6396,0.6542,0.6543,0.6544,0.6511,0,0,0,0,0,0,0.5904,0.5925,0.5942,0.6015,0.6039,0.6125,0.6138,0.6151,0.6185,0.6188,0.6262,0.6273,0.6313,0.6377,0.6392,0.6407,0.64,0.6541,0.6542,0.6543,0.6511,0.651,0.651,0,0,0,0,0,0.5897,0.5929,0.5943,0.596,0.6062,0.6126,0.6139,0.6183,0.6185,0.6204,0.6248,0.6271,0.6395,0.6383,0.64,0.6417,0.654,0.6542,0.6543,0.6511,0.651,0.651,0,0,0,0,0,0,0.5856,0.5939,0.5956,0.6012,0.6061,0.6134,0.6159,0.6182,0.6232,0.6233,0.6287,0.6303,0.6357,0.6393,0.6377,0.6465,0.6469,0.6474,0.6439,0.6439,0.6439,0.6429,0.6405,0,0,0,0,0,0.5854,0.5898,0.5968,0.6011,0.6035,0.6092,0.6122,0.6152,0.6205,0.6227,0.6276,0.6328,0.6379,0.6411,0.6462,0.6516,0.6533,0.6536,0.6536,0.6535,0.6539,0.657,0.6572,0.6549,0.6549,0.6549,0,0,0.5849,0.59,0.5925,0.6004,0.6046,0.6092,0.611,0.6157,0.6192,0.6235,0.6292,0.633,0.6391,0.6448,0.6475,0.6479,0.6549,0.6537,0.6536,0.654,0.6572,0.6574,0.6576,0.655,0.655,0.655,0,0,0.5864,0.5907,0.5947,0.5988,0.6051,0.6089,0.6098,0.6168,0.6194,0.6253,0.6285,0.6328,0.6414,0.6456,0.6489,0.6519,0.6542,0.6534,0.6532,0.6562,0.6564,0.6566,0.6577,0.658,0.6538,0.6538,0.6538,0,0.5851,0.592,0.5965,0.601,0.6045,0.6084,0.6125,0.6164,0.624,0.6263,0.6266,0.6375,0.6419,0.6486,0.6493,0.6518,0.6531,0.6526,0.656,0.6562,0.6565,0.6575,0.6579,0.6536,0.6536,0.6537,0.6537,0,0.59,0.5948,0.5973,0.6044,0.6081,0.6124,0.6176,0.6209,0.6235,0.6272,0.6331,0.6386,0.6448,0.6466,0.6492,0.6536,0.6537,0.6549,0.6555,0.6565,0.6576,0.658,0.6534,0.6535,0.6535,0.6535,0,0,0.5894,0.5989,0.5997,0.603,0.6102,0.614,0.6185,0.6244,0.6271,0.6322,0.6361,0.6433,0.6445,0.6482,0.6513,0.6539,0.656,0.6549,0.6551,0.6549,0.6611,0.6601,0.6605,0.6575,0.6576,0.6577,0.6606,0,0.5918,0.6,0.6041,0.6105,0.615,0.6187,0.6227,0.6275,0.6311,0.6355,0.6395,0.6445,0.6457,0.6479,0.6507,0.6551,0.6573,0.655,0.6613,0.6614,0.6596,0.6611,0.6601,0.6626,0.6611,0.6612,0.6612,0,0.5958,0.6007,0.6075,0.6141,0.6161,0.6196,0.6254,0.6295,0.635,0.6375,0.6416,0.6446,0.6496,0.6497,0.6566,0.655,0.6578,0.6603,0.6605,0.6613,0.6614,0.662,0.6636,0.6639,0.6619,0.6619,0.6618,0,0.5946,0.603,0.6081,0.6108,0.6186,0.621,0.6244,0.6299,0.6332,0.6383,0.6405,0.6461,0.6492,0.6534,0.658,0.6577,0.6644,0.665,0.6666,0.6665,0.6679,0.6678,0.67,0.6697,0.6697,0.6697,0.6696,0,0.5969,0.6009,0.6077,0.6108,0.6154,0.6202,0.6247,0.6284,0.6332,0.6372,0.6409,0.6445,0.6503,0.6547,0.6582,0.6634,0.6647,0.6669,0.6678,0.6666,0.6663,0.6685,0.6685,0.6698,0.6697,0.6697,0.6697,0,0.5963,0.601,0.6069,0.6138,0.6156,0.6187,0.6247,0.6279,0.6317,0.6367,0.6381,0.6441,0.6494,0.6543,0.6615,0.6639,0.6691,0.6703,0.6672,0.6677,0.6691,0.6689,0.6728,0.6736,0.6727,0.6727,0.6727,0,0.5975,0.6006,0.6079,0.6108,0.6141,0.6187,0.622,0.6269,0.6302,0.6368,0.6392,0.6448,0.6496,0.6579,0.6629,0.6684,0.6698,0.6707,0.6706,0.6693,0.6698,0.6695,0.6699,0.6707,0.6707,0.6707,0.6707,0,0.599,0.6012,0.6059,0.6113,0.6152,0.6198,0.6245,0.6267,0.6324,0.636,0.6414,0.6451,0.6523,0.6579,0.6639,0.6675,0.67,0.6706,0.6713,0.6701,0.6682,0.6692,0.667,0.6705,0.6706,0.6706,0.6706,0.6706,0.5994,0.6024,0.6079,0.613,0.617,0.6213,0.6246,0.6288,0.6334,0.6396,0.6422,0.6477,0.6532,0.6616,0.6651,0.6696,0.6701,0.6711,0.6713,0.6715,0.6713,0.6674,0.6707,0.6707,0.6707,0.6707,0.6707,0,0.6012,0.6049,0.6095,0.6159,0.6199,0.6218,0.6271,0.6303,0.6351,0.64,0.6446,0.6508,0.6562,0.6616,0.6672,0.6697,0.6711,0.6711,0.6709,0.6717,0.6705,0.6693,0.6699,0.6699,0.6699,0.6699,0.6699,0.6699,0.6025,0.6077,0.6105,0.6176,0.6213,0.6267,0.6296,0.6335,0.6375,0.6443,0.6487,0.6521,0.6572,0.6632,0.6683,0.6697,0.6716,0.6713,0.6731,0.6718,0.6718,0.6718,0.6708,0.6717,0.6717,0.674,0.674,0.674]},{"header":{"parameterUnit":"m.s-1","parameterCategory":1,"la1":30.2991,"la2":30.254,"lo1":-89.0895,"lo2":-89.0444,"dy":0.0017,"dx":0.0017,"nx":28,"ny":28,"refTime":"2025-04-25T21:00:00:Z","depth":0,"parameterNumber":3,"parameterNumberName":"V-component_of_WINDS"},"data":[0,0,0,0,0,0,0,0,0,0,0,0,0,0,0,0,0,0,0,0,0,0,0,0,0,0,0,0,0,0,0,0,0,0,0,0,0,0,0,0,0,0,0,0,0,0,0,0,0,0,0,0,0,0,0,0,0,0,2.9956,2.9956,0,2.9938,2.9937,2.9937,2.9962,2.9963,2.9964,2.9965,2.9942,2.994,2.9939,0,0,0,0,0,0,0,0,0,0,0,0,0,3.0007,3.0006,2.9956,2.9956,2.9955,2.9938,2.9937,2.9937,2.9962,2.9963,2.9964,2.9966,2.9942,2.9941,2.9939,0,0,0,0,0,0,0,0,0,0,0,0,0,2.9986,3.0005,2.9956,2.9966,2.9967,2.9938,2.9937,2.9937,2.9962,2.9963,2.9965,2.9966,2.9943,2.9941,2.9939,2.9898,0,0,2.9932,2.9931,0,0,0,0,0,0,0,0,2.9987,2.9984,2.9965,2.9965,2.9966,2.9954,2.9947,2.9924,2.9962,2.9964,2.9965,2.9967,2.9944,2.9942,2.9936,2.9897,2.9896,2.9932,2.993,2.9929,2.9929,0,0,0,0,0,0,0,2.9989,2.9985,2.9949,2.9964,2.9965,2.9969,2.9968,2.9943,2.9946,2.9964,2.9965,2.9963,2.9945,2.9938,2.9935,2.9895,2.9932,2.993,2.9928,2.9927,2.9818,2.9817,0,0,0,0,0,0,2.999,2.9986,2.9949,2.9948,2.998,2.9967,2.9966,2.9956,2.9947,2.9947,2.9962,2.9964,2.9941,2.9938,2.9934,2.9884,2.9929,2.9927,2.9926,2.982,2.9818,2.9816,0,0,0,0,0,0,2.9991,2.9986,2.995,2.9968,2.9963,2.9965,2.9954,2.9955,2.9948,2.9946,2.9946,2.9954,2.9942,2.9938,2.9906,2.9883,2.9926,2.9924,2.9822,2.9819,2.9817,2.9783,0,0,0,0,0,0,2.9992,2.9986,2.9972,2.9967,2.9962,2.9923,2.9953,2.9954,2.9945,2.9948,2.9938,2.9938,2.9942,2.9909,2.9904,2.9881,2.9923,2.9824,2.9821,2.9818,2.9786,2.978,2.9775,0,0,0,0,0,2.9994,2.9963,2.9971,2.9967,2.9945,2.9922,2.9919,2.9926,2.9943,2.9927,2.9926,2.9938,2.9887,2.9906,2.99,2.9876,2.9825,2.9822,2.9818,2.9789,2.9781,2.9775,0,0,0,0,0,0,2.9964,2.9962,2.9972,2.9939,2.9931,2.9927,2.9908,2.9918,2.9904,2.9907,2.9915,2.9913,2.9879,2.9875,2.9896,2.9835,2.9859,2.9854,2.9838,2.9831,2.9825,2.9826,2.9921,0,0,0,0,0,2.9954,2.9937,2.9936,2.9907,2.9903,2.9906,2.9896,2.9902,2.9893,2.9889,2.9886,2.9875,2.9856,2.9844,2.9827,2.9786,2.9783,2.9767,2.9761,2.9756,2.9751,2.9727,2.9719,2.9805,2.9805,2.9805,0,0,2.9932,2.9929,2.9918,2.9901,2.9895,2.9876,2.9903,2.9881,2.9866,2.9886,2.9856,2.9852,2.9841,2.9804,2.9788,2.98,2.9727,2.9752,2.9748,2.9745,2.9722,2.9714,2.9707,2.9802,2.9803,2.9803,0,0,2.9882,2.9879,2.9854,2.9848,2.9839,2.9841,2.9835,2.9829,2.9828,2.9798,2.9812,2.9793,2.9762,2.9752,2.9743,2.9688,2.9698,2.9682,2.9651,2.9627,2.962,2.9614,2.9592,2.9584,2.9678,2.9678,2.9678,0,2.9856,2.9829,2.9839,2.9816,2.9807,2.9825,2.9798,2.9791,2.9777,2.9769,2.9783,2.9742,2.9736,2.9696,2.9682,2.9676,2.9666,2.9683,2.9621,2.9615,2.9609,2.9588,2.958,2.9676,2.9676,2.9676,2.9676,0,2.9795,2.9776,2.9756,2.9743,2.9732,2.9707,2.9711,2.9698,2.9705,2.9705,2.9673,2.9666,2.9646,2.9638,2.9644,2.9598,2.9605,2.962,2.9644,2.9599,2.9579,2.9571,2.9673,2.9673,2.9674,2.9675,0,0,2.9726,2.9718,2.971,2.9703,2.9695,2.9679,2.9654,2.9636,2.9624,2.9613,2.959,2.9563,2.9575,2.9565,2.957,2.955,2.9503,2.9566,2.9566,2.9553,2.9448,2.9436,2.9427,2.9511,2.9509,2.9508,2.9448,0,2.9674,2.9632,2.964,2.9598,2.9579,2.9596,2.9573,2.9564,2.9563,2.9545,2.9543,2.9523,2.9543,2.9536,2.9517,2.9513,2.9482,2.9518,2.9487,2.9485,2.9487,2.9417,2.9404,2.9348,2.9441,2.944,2.9439,0,2.9608,2.9596,2.9552,2.9545,2.9537,2.9518,2.9501,2.9484,2.9473,2.9474,2.9462,2.947,2.9442,2.9468,2.9428,2.9452,2.944,2.9436,2.9434,2.943,2.9458,2.9408,2.9331,2.9322,2.9427,2.9428,2.9429,0,2.9559,2.9531,2.9501,2.9495,2.9487,2.9472,2.9467,2.9458,2.9446,2.9431,2.9423,2.9404,2.9393,2.9377,2.9379,2.9398,2.9338,2.9364,2.9335,2.9334,2.932,2.932,2.9237,2.9315,2.9316,2.9316,2.9316,0,2.9499,2.9471,2.9479,2.946,2.9428,2.9437,2.9404,2.9402,2.9393,2.9372,2.9385,2.9365,2.937,2.9349,2.935,2.9315,2.9311,2.9308,2.9308,2.9306,2.9306,2.9296,2.9299,2.9314,2.9314,2.9314,2.9315,0,2.9438,2.9442,2.941,2.9405,2.9403,2.9379,2.9373,2.9354,2.9355,2.9328,2.9322,2.9321,2.9296,2.9298,2.927,2.9271,2.9227,2.9233,2.9231,2.9231,2.9201,2.9203,2.9107,2.9094,2.9183,2.9182,2.9181,0,2.9399,2.9378,2.937,2.9358,2.9353,2.9333,2.9321,2.9328,2.9314,2.9299,2.9281,2.9259,2.9241,2.9201,2.9196,2.9174,2.9178,2.9146,2.9175,2.9172,2.9175,2.9175,2.9171,2.914,2.9139,2.9138,2.9137,0,2.9328,2.9331,2.9314,2.9298,2.9283,2.927,2.9258,2.9247,2.9252,2.9236,2.9212,2.9198,2.917,2.9146,2.9125,2.9117,2.9127,2.9129,2.912,2.9116,2.9115,2.9113,2.9213,2.913,2.9131,2.9132,2.9132,2.9132,2.9275,2.9256,2.9248,2.9228,2.922,2.9208,2.9189,2.9187,2.9168,2.9146,2.9151,2.9123,2.911,2.9083,2.9074,2.9051,2.9062,2.905,2.9047,2.9043,2.9038,2.912,2.9047,2.9047,2.9047,2.9048,2.9048,0,2.9203,2.9198,2.918,2.9163,2.9147,2.916,2.9146,2.9131,2.9107,2.9095,2.9078,2.9048,2.9025,2.9018,2.8995,2.8977,2.8981,2.8971,2.8971,2.8968,2.9031,2.904,2.8968,2.8968,2.8968,2.8968,2.8968,2.8968,2.9163,2.9132,2.9133,2.9096,2.9091,2.9065,2.9056,2.9044,2.9035,2.9002,2.8983,2.898,2.8969,2.8945,2.8923,2.8921,2.8911,2.8898,2.8898,2.8956,2.8964,2.8972,2.898,2.8896,2.8896,2.8837,2.8836,2.8836]}]]